Regional Weather Roundup
Issued by NWS Albany, NY

Home | Current Version | Previous Version | Text Only | Print | Product List | Glossary On
Versions: 1 2 3 4 5 6 7 8 9 10 11 12 13 14 15 16 17 18 19 20 21 22 23 24 25 26 27 28 29 30 31 32 33 34 35 36 37 38 39 40 41 42 43 44 45 46 47 48 49 50
000
ASUS41 KALY 082010
RWRALY

NEW YORK STATE HOURLY WEATHER ROUNDUP
NATIONAL WEATHER SERVICE ALBANY NY
300 PM EST MON FEB 08 2016

NOTE: "FAIR" INDICATES FEW OR NO CLOUDS BELOW 12,000 FEET WITH NO
SIGNIFICANT WEATHER AND/OR NO OBSTRUCTIONS TO VISIBILITY.

NYZ032-033-038>043-046>054-057>066-NYZ062>081-082100-
EAST


CITY           SKY/WX    TMP DP  RH WIND       PRES   REMARKS
ALBANY         CLOUDY    33  -6  18 NE14      29.78F WCI  23
GLENS FALLS    CLOUDY    32  -1  24 NE8       29.79F WCI  25
POUGHKEEPSIE   CLOUDY    35  12  38 N13G18    29.73F WCI  26
NEWBURGH       CLOUDY    34  10  37 NE12      29.72F WCI  25
MONTGOMERY     CLOUDY    34  10  37 NE10      29.72S WCI  26
WHITE PLAINS   CLOUDY    29  22  75 N8        29.71S FOG     WCI  21
ISLIP          LGT SNOW  27  22  81 N17G25    29.70S VSB 1   WCI  14
NEW YORK CITY  CLOUDY    33  23  66 NE15G21   29.73F WCI  23
CENTRAL PARK   CLOUDY    33  22  63 NE13G22   29.74F WCI  24
$$

NYZ005>009-017-018-044>046-055-056-082100-
CENTRAL


CITY           SKY/WX    TMP DP  RH WIND       PRES   REMARKS
FULTON         CLOUDY    41  22  46 E9        29.67F
SYRACUSE       CLOUDY    40  22  48 E12       29.67F WCI  33
ROME           CLOUDY    36  14  40 SE14      29.74F WCI  27
ELMIRA         MOSUNNY   41  25  53 S7        29.64F
BINGHAMTON     CLOUDY    37  20  50 SE8       29.61F WCI  31
MONTICELLO     CLOUDY    32  10  40 E10       29.67F WCI  24
$$

NYZ026>034-041>043-082100-
NORTH


CITY           SKY/WX    TMP DP  RH WIND       PRES   REMARKS
WATERTOWN      CLOUDY    31  19  61 NE18      29.72F WCI  19
FORT DRUM      NOT AVBL
MASSENA        CLOUDY    21   8  57 NE17      29.86S WCI   7
SARANAC LAKE   CLOUDY    27  15  61 E10       29.69S WCI  17
PLATTSBURGH    CLOUDY    25   5  42 N12       29.85F WCI  14
$$

NYZ001>004-010>016-019>021-082100-
WEST


CITY           SKY/WX    TMP DP  RH WIND       PRES   REMARKS
NIAGARA FALLS  CLOUDY    47  30  51 E14       29.57F
BUFFALO        CLOUDY    48  27  44 SE12      29.57F
DUNKIRK        CLOUDY    45  28  51 SE7       29.56F
JAMESTOWN      CLOUDY    43  25  49 S8        29.53F
WELLSVILLE     CLOUDY    39  21  48 S9        29.57F WCI  33
ROCHESTER      CLOUDY    42  25  50 E12       29.63F
PENN YAN       CLOUDY    39  23  52 SE7       29.63F WCI  34
$$

             KEY
       WCI = WIND CHILL INDEX
       VSB = VISIBILITY
       HX  = HEAT INDEX
$$



USA.gov is the U.S. government's official web portal to all federal, state and local government web resources and services.